�������l�o���
Date,Time,MP-1(��Sv/h),MP-2(��Sv/h),MP-3(��Sv/h),MP-4(��Sv/h),MP-5(��Sv/h),MP-6(��Sv/h),MP-7(��Sv/h),����,����(m/s),���J
2023/01/07,00:00,0.155,0.141,0.219,0.216,0.214,0.123,0.079,�k,1.0,��
2023/01/07,00:10,0.155,0.141,0.219,0.216,0.215,0.123,0.079,�k�k��,1.0,��
2023/01/07,00:20,0.155,0.140,0.218,0.217,0.214,0.123,0.079,�k,0.7,��
2023/01/07,00:30,0.156,0.139,0.218,0.216,0.214,0.124,0.078,�k,0.9,��
2023/01/07,00:40,0.155,0.140,0.218,0.215,0.214,0.124,0.078,-,CALM,��
2023/01/07,00:50,0.155,0.140,0.218,0.215,0.214,0.124,0.078,-,CALM,��
2023/01/07,01:00,0.154,0.140,0.218,0.216,0.215,0.123,0.078,-,CALM,��
2023/01/07,01:10,0.155,0.140,0.218,0.215,0.215,0.122,0.078,�k��,0.6,��
2023/01/07,01:20,0.156,0.139,0.219,0.216,0.214,0.123,0.078,-,CALM,��
2023/01/07,01:30,0.156,0.141,0.219,0.217,0.215,0.123,0.079,�k��,0.8,��
2023/01/07,01:40,0.155,0.140,0.219,0.216,0.213,0.123,0.079,�k�k��,1.5,��
2023/01/07,01:50,0.155,0.140,0.219,0.216,0.213,0.124,0.079,�k�k��,1.6,��
2023/01/07,02:00,0.155,0.140,0.218,0.216,0.213,0.123,0.079,�k�k��,1.7,��
2023/01/07,02:10,0.156,0.140,0.219,0.216,0.214,0.123,0.079,�k��,1.4,��
2023/01/07,02:20,0.156,0.139,0.218,0.217,0.214,0.124,0.079,�k��,1.4,��
2023/01/07,02:30,0.155,0.141,0.218,0.216,0.213,0.123,0.079,�k��,2.4,��
2023/01/07,02:40,0.156,0.140,0.219,0.216,0.215,0.123,0.079,�k��,2.8,��
2023/01/07,02:50,0.155,0.140,0.218,0.216,0.214,0.124,0.079,�k��,3.5,��
2023/01/07,03:00,0.155,0.140,0.218,0.216,0.213,0.124,0.078,���k��,4.2,��
2023/01/07,03:10,0.156,0.140,0.218,0.217,0.213,0.124,0.079,�k��,3.2,��
2023/01/07,03:20,0.156,0.140,0.218,0.216,0.214,0.124,0.079,�k��,2.6,��
2023/01/07,03:30,0.155,0.140,0.218,0.217,0.214,0.123,0.079,���k��,3.1,��
2023/01/07,03:40,0.155,0.141,0.218,0.216,0.215,0.123,0.078,�k��,2.9,��
2023/01/07,03:50,0.156,0.141,0.219,0.216,0.215,0.123,0.079,���k��,3.0,��
2023/01/07,04:00,0.156,0.140,0.218,0.215,0.213,0.123,0.079,���k��,2.8,��
2023/01/07,04:10,0.156,0.141,0.219,0.216,0.214,0.124,0.079,���k��,3.4,��
2023/01/07,04:20,0.156,0.140,0.219,0.216,0.215,0.123,0.078,�k��,2.3,��
2023/01/07,04:30,0.156,0.140,0.219,0.215,0.214,0.123,0.079,�k,2.0,��
2023/01/07,04:40,0.155,0.141,0.218,0.216,0.215,0.123,0.079,�k,2.3,��
2023/01/07,04:50,0.156,0.141,0.219,0.217,0.215,0.124,0.080,�k�k��,4.9,��
2023/01/07,05:00,0.156,0.140,0.219,0.216,0.214,0.123,0.079,�k�k��,3.6,��
2023/01/07,05:10,0.156,0.140,0.218,0.216,0.214,0.123,0.078,�k,3.2,��
2023/01/07,05:20,0.155,0.139,0.219,0.216,0.213,0.123,0.079,�k,3.1,��
2023/01/07,05:30,0.156,0.140,0.219,0.217,0.215,0.123,0.079,�k�k��,2.9,��
2023/01/07,05:40,0.155,0.140,0.218,0.216,0.214,0.124,0.079,�k,3.3,��
2023/01/07,05:50,0.155,0.141,0.220,0.216,0.214,0.123,0.080,�k�k��,3.7,��
2023/01/07,06:00,0.156,0.140,0.220,0.215,0.214,0.124,0.079,�k�k��,4.5,��
2023/01/07,06:10,0.155,0.141,0.219,0.217,0.214,0.124,0.079,�k�k��,3.9,��
2023/01/07,06:20,0.156,0.141,0.219,0.215,0.214,0.124,0.079,�k�k��,3.9,��
2023/01/07,06:30,0.156,0.140,0.220,0.216,0.214,0.124,0.079,�k�k��,4.2,��
2023/01/07,06:40,0.155,0.141,0.218,0.216,0.213,0.123,0.079,�k�k��,3.9,��
2023/01/07,06:50,0.156,0.140,0.219,0.217,0.213,0.123,0.078,�k�k��,2.9,��
2023/01/07,07:00,0.155,0.140,0.218,0.215,0.213,0.123,0.078,�k��,2.6,��
2023/01/07,07:10,0.156,0.140,0.217,0.216,0.213,0.122,0.079,�k�k��,2.4,��
2023/01/07,07:20,0.156,0.141,0.219,0.216,0.215,0.123,0.079,�k�k��,3.0,��
2023/01/07,07:30,0.156,0.139,0.219,0.216,0.215,0.123,0.079,�k��,2.9,��
2023/01/07,07:40,0.156,0.140,0.218,0.217,0.214,0.124,0.079,�k��,3.9,��
2023/01/07,07:50,0.155,0.140,0.219,0.216,0.213,0.123,0.079,�k��,4.6,��
2023/01/07,08:00,0.156,0.140,0.219,0.216,0.215,0.124,0.079,�k��,4.4,��
2023/01/07,08:10,0.155,0.140,0.219,0.215,0.215,0.124,0.079,�k��,4.5,��
2023/01/07,08:20,0.156,0.140,0.219,0.215,0.214,0.124,0.079,�k��,4.5,��
2023/01/07,08:30,0.155,0.140,0.219,0.216,0.214,0.124,0.079,�k��,4.7,��
2023/01/07,08:40,0.154,0.140,0.218,0.217,0.213,0.124,0.079,�k��,4.6,��
2023/01/07,08:50,0.155,0.140,0.218,0.215,0.214,0.123,0.079,�k��,4.3,��
2023/01/07,09:00,0.155,0.139,0.217,0.215,0.214,0.123,0.078,�k�k��,3.4,��
2023/01/07,09:10,0.156,0.140,0.219,0.216,0.213,0.124,0.078,�k��,4.0,��
2023/01/07,09:20,0.155,0.141,0.218,0.216,0.213,0.123,0.078,�k��,4.5,��
2023/01/07,09:30,0.155,0.141,0.218,0.216,0.214,0.123,0.079,�k��,3.5,��
2023/01/07,09:40,0.155,0.140,0.219,0.215,0.214,0.123,0.078,�k��,3.2,��
2023/01/07,09:50,0.154,0.141,0.218,0.217,0.214,0.123,0.078,�k��,3.3,��
2023/01/07,10:00,0.155,0.140,0.218,0.215,0.214,0.124,0.078,�k��,2.9,��
2023/01/07,10:10,0.156,0.139,0.218,0.214,0.214,0.124,0.079,�k��,2.0,��
2023/01/07,10:20,0.155,0.140,0.219,0.216,0.213,0.123,0.078,�k�k��,2.2,��
2023/01/07,10:30,0.155,0.140,0.218,0.216,0.213,0.123,0.078,�k��,2.0,��
2023/01/07,10:40,0.155,0.140,0.218,0.215,0.214,0.123,0.078,�k�k��,2.1,��
2023/01/07,10:50,0.154,0.141,0.217,0.217,0.214,0.123,0.078,�k��,1.7,��
2023/01/07,11:00,0.154,0.140,0.218,0.216,0.214,0.123,0.077,�k�k��,1.6,��
2023/01/07,11:10,0.155,0.139,0.216,0.215,0.214,0.124,0.079,�k,1.4,��
2023/01/07,11:20,0.156,0.140,0.217,0.216,0.215,0.123,0.078,�k,0.8,��
2023/01/07,11:30,0.155,0.140,0.218,0.215,0.213,0.123,0.078,�k,0.8,��
2023/01/07,11:40,0.155,0.139,0.218,0.216,0.215,0.123,0.078,���k��,1.1,��
2023/01/07,11:50,0.154,0.140,0.218,0.215,0.214,0.123,0.078,�k��,1.0,��
2023/01/07,12:00,0.153,0.140,0.218,0.216,0.214,0.123,0.078,��,0.8,��
2023/01/07,12:10,0.155,0.140,0.218,0.215,0.215,0.123,0.079,�k�k��,1.5,��
2023/01/07,12:20,0.154,0.141,0.217,0.217,0.214,0.123,0.079,�k�k��,0.9,��
2023/01/07,12:30,0.155,0.139,0.218,0.215,0.215,0.122,0.078,�k�k��,0.9,��
2023/01/07,12:40,0.155,0.139,0.216,0.216,0.214,0.122,0.079,��,1.2,��
2023/01/07,12:50,0.154,0.140,0.217,0.214,0.214,0.124,0.079,�k��,1.6,��
2023/01/07,13:00,0.155,0.139,0.218,0.215,0.214,0.123,0.079,�k��,1.4,��
2023/01/07,13:10,0.154,0.140,0.217,0.215,0.214,0.124,0.079,���k��,1.5,��
2023/01/07,13:20,0.154,0.139,0.219,0.215,0.215,0.123,0.079,���k��,1.6,��
2023/01/07,13:30,0.154,0.140,0.217,0.215,0.215,0.123,0.079,��,1.0,��
2023/01/07,13:40,0.156,0.139,0.219,0.214,0.213,0.123,0.078,�k��,1.2,��
2023/01/07,13:50,0.155,0.139,0.219,0.216,0.215,0.124,0.079,�k��,1.7,��
2023/01/07,14:00,0.155,0.141,0.218,0.215,0.213,0.124,0.078,�k��,1.4,��
2023/01/07,14:10,0.155,0.140,0.219,0.215,0.215,0.123,0.079,�k��,1.0,��
2023/01/07,14:20,0.155,0.140,0.220,0.216,0.212,0.123,0.078,�k�k��,1.9,��
2023/01/07,14:30,0.156,0.139,0.219,0.216,0.215,0.122,0.078,�k�k��,1.3,��
2023/01/07,14:40,0.154,0.140,0.219,0.216,0.214,0.123,0.079,���k��,1.0,��
2023/01/07,14:50,0.155,0.140,0.218,0.215,0.213,0.122,0.078,��,1.5,��
2023/01/07,15:00,0.155,0.139,0.219,0.215,0.217,0.123,0.078,��,1.8,��
2023/01/07,15:10,0.155,0.139,0.219,0.215,0.215,0.123,0.078,���쓌,1.2,��
2023/01/07,15:20,0.156,0.140,0.218,0.216,0.214,0.123,0.079,���k��,0.9,��
2023/01/07,15:30,0.154,0.140,0.218,0.216,0.215,0.123,0.078,-,CALM,��
2023/01/07,15:40,0.155,0.140,0.219,0.216,0.214,0.124,0.078,���k��,0.6,��
2023/01/07,15:50,0.156,0.140,0.219,0.216,0.215,0.123,0.079,�k,1.4,��
2023/01/07,16:00,0.156,0.140,0.218,0.216,0.215,0.123,0.079,�k,1.7,��
2023/01/07,16:10,0.155,0.140,0.218,0.216,0.214,0.124,0.078,�k�k��,1.3,��
2023/01/07,16:20,0.156,0.140,0.219,0.216,0.214,0.124,0.078,�k�k��,1.1,��
2023/01/07,16:30,0.156,0.140,0.219,0.216,0.214,0.124,0.078,�k��,1.1,��
2023/01/07,16:40,0.155,0.140,0.218,0.218,0.213,0.123,0.078,���k��,1.2,��
2023/01/07,16:50,0.154,0.140,0.219,0.217,0.214,0.123,0.078,�k��,0.9,��
2023/01/07,17:00,0.155,0.140,0.219,0.216,0.215,0.123,0.079,�k��,1.5,��
2023/01/07,17:10,0.155,0.140,0.219,0.215,0.214,0.124,0.079,�k��,2.1,��
2023/01/07,17:20,0.154,0.140,0.218,0.217,0.213,0.124,0.078,�k��,1.6,��
2023/01/07,17:30,0.156,0.140,0.218,0.216,0.215,0.124,0.079,�k��,1.2,��
2023/01/07,17:40,0.156,0.140,0.219,0.217,0.214,0.123,0.079,�k��,0.9,��
2023/01/07,17:50,0.156,0.141,0.219,0.216,0.215,0.122,0.078,�k��,2.0,��
2023/01/07,18:00,0.156,0.140,0.219,0.217,0.214,0.123,0.079,���k��,2.7,��
2023/01/07,18:10,0.156,0.140,0.220,0.216,0.216,0.124,0.079,���k��,2.6,��
2023/01/07,18:20,0.155,0.140,0.219,0.217,0.214,0.124,0.079,���k��,2.8,��
2023/01/07,18:30,0.156,0.141,0.219,0.215,0.214,0.124,0.079,���k��,1.9,��
2023/01/07,18:40,0.156,0.141,0.219,0.216,0.214,0.124,0.078,���k��,1.7,��
2023/01/07,18:50,0.156,0.140,0.219,0.217,0.214,0.124,0.079,���k��,1.6,��
2023/01/07,19:00,0.155,0.141,0.219,0.217,0.215,0.124,0.079,��,0.6,��
2023/01/07,19:10,0.154,0.140,0.219,0.216,0.214,0.124,0.079,��,0.6,��
2023/01/07,19:20,0.156,0.140,0.220,0.217,0.213,0.124,0.079,���쐼,1.4,��
2023/01/07,19:30,0.156,0.140,0.220,0.217,0.213,0.123,0.078,���쐼,0.9,��
2023/01/07,19:40,0.156,0.140,0.219,0.216,0.214,0.124,0.079,��,1.1,��
2023/01/07,19:50,0.156,0.141,0.218,0.216,0.214,0.123,0.078,��,1.4,��
2023/01/07,20:00,0.155,0.140,0.220,0.216,0.214,0.124,0.079,��,1.2,��
2023/01/07,20:10,0.155,0.140,0.219,0.217,0.214,0.125,0.078,��,1.0,��
2023/01/07,20:20,0.156,0.140,0.219,0.216,0.213,0.123,0.079,��,0.8,��
2023/01/07,20:30,0.156,0.141,0.219,0.216,0.213,0.124,0.079,�쐼,1.4,��
2023/01/07,20:40,0.155,0.140,0.220,0.217,0.215,0.124,0.079,�쐼,2.6,��
2023/01/07,20:50,0.155,0.140,0.219,0.216,0.214,0.123,0.079,���쐼,2.3,��
2023/01/07,21:00,0.155,0.141,0.219,0.215,0.213,0.124,0.079,�쐼,2.2,��
2023/01/07,21:10,0.156,0.141,0.218,0.215,0.214,0.124,0.079,���쐼,1.3,��
2023/01/07,21:20,0.156,0.141,0.219,0.217,0.214,0.123,0.079,-,CALM,��
2023/01/07,21:30,0.155,0.141,0.219,0.216,0.215,0.123,0.080,���쐼,1.0,��
2023/01/07,21:40,0.155,0.140,0.219,0.215,0.214,0.124,0.079,���쐼,2.2,��
2023/01/07,21:50,0.155,0.140,0.219,0.216,0.214,0.122,0.079,���쐼,1.5,��
2023/01/07,22:00,0.156,0.141,0.219,0.217,0.214,0.124,0.080,���쐼,2.1,��
2023/01/07,22:10,0.156,0.140,0.218,0.216,0.215,0.123,0.079,���k��,1.9,��
2023/01/07,22:20,0.155,0.141,0.220,0.216,0.214,0.125,0.079,���k��,2.6,��
2023/01/07,22:30,0.156,0.140,0.219,0.216,0.214,0.123,0.079,���k��,3.2,��
2023/01/07,22:40,0.156,0.141,0.220,0.217,0.215,0.124,0.079,���k��,3.4,��
2023/01/07,22:50,0.155,0.140,0.219,0.217,0.214,0.124,0.079,�k��,5.2,��
2023/01/07,23:00,0.155,0.141,0.219,0.216,0.214,0.124,0.079,�k��,5.7,��
2023/01/07,23:10,0.156,0.141,0.217,0.216,0.214,0.124,0.079,�k�k��,3.6,��
2023/01/07,23:20,0.156,0.140,0.220,0.217,0.215,0.124,0.079,�k�k��,3.8,��
2023/01/07,23:30,0.156,0.141,0.219,0.217,0.215,0.124,0.080,�k��,3.2,��
2023/01/07,23:40,0.156,0.141,0.219,0.216,0.215,0.124,0.079,�k��,3.3,��
2023/01/07,23:50,0.156,0.141,0.220,0.217,0.215,0.124,0.080,�k�k��,3.1,��
